Skip to main content

CRUISE INFORMATION RECORD AND DATA
 
NODC Cruise 09-2856 Information
WOD CRUISE REFERENCE # 09002856
DATA:
in WOD format 09002856_XBT.dat
09002856_CTD.dat
in 'csv' format 09002856_XBT.csv
09002856_CTD.csv
METADATA:
COUNTRY AUSTRALIA (09)
NODC ACCESSION NUMBER (XBT) 43167
NODC ACCESSION NUMBER (CTD) 841
SHIP NAME (43167) AURORA AUSTRALIS
INSTITUTE (841) COMMONWEALTH SCIENTIFIC AND INDUSTRIAL RESEARCH ORGANIZATION (CSIRO)
PROJECT (841) WOCE (WORLD OCEAN CIRCULATION EXPERIMENT)
ORIGINATORS CRUISE CODE (CTD) 09AR9391/2
PRIMARY INVESTIGATORS  
All Parameters RINTOUL; STEVE
SUBMITTING INFORMATION (841)  
SUBMISSION DATE 7/9/2002
DATE OF FIRST CAST 4/ 4/1993
DATE OF LAST CAST 5/ 2/1993
TOTAL NUMBER OF CASTS 78
Temperature [t] PROFILES 78
Salinity [s] PROFILES 64
Pressure [w] PROFILES 64
UNIQUE CAST # LATITUDE LONGITUDE DATE TIME PROBE TYPE
7545237 -43.221 148.096 4/4/1993 9.317 CTD
7545238 -43.240 148.223 4/4/1993 10.833 CTD
7545239 -43.246 148.263 4/4/1993 12.967 CTD
7545240 -43.237 148.347 4/4/1993 15.883 CTD
7545241 -43.241 148.542 4/4/1993 19.400 CTD
7545242 -43.278 149.238 4/5/1993 3.100 CTD
7545243 -43.253 149.924 4/5/1993 9.433 CTD
7545244 -43.264 150.651 4/5/1993 15.883 CTD
7545245 -43.257 150.663 4/5/1993 19.167 CTD
11440613 -43.250 150.670 4/5/1993 20.217 XBT
7545246 -43.249 151.327 4/6/1993 1.267 CTD
7545247 -43.248 152.061 4/6/1993 8.467 CTD
7545248 -43.241 152.796 4/6/1993 19.550 CTD
7545249 -43.256 153.496 4/7/1993 2.633 CTD
7545250 -43.243 154.257 4/7/1993 9.883 CTD
7545254 -43.252 154.976 4/9/1993 1.167 CTD
7545257 -43.750 154.998 4/9/1993 11.467 CTD
7545258 -44.245 155.010 4/9/1993 16.833 CTD
11440614 -44.230 155.020 4/9/1993 20.333 XBT
7545259 -44.736 155.005 4/10/1993 2.717 CTD
11440615 -44.730 155.000 4/10/1993 4.783 XBT
7545260 -45.242 155.005 4/10/1993 9.917 CTD
7545263 -45.743 154.995 4/10/1993 16.767 CTD
7545264 -46.254 154.999 4/10/1993 23.767 CTD
11440616 -46.250 155.000 4/11/1993 1.417 XBT
7545265 -46.753 155.015 4/11/1993 6.300 CTD
7545267 -47.251 154.992 4/11/1993 12.900 CTD
11440617 -47.250 154.980 4/11/1993 14.633 XBT
11440618 -47.250 154.980 4/11/1993 14.750 XBT
7545268 -47.751 155.006 4/11/1993 19.417 CTD
7545269 -48.251 154.992 4/12/1993 2.483 CTD
7545270 -48.754 154.992 4/12/1993 8.983 CTD
7545273 -49.258 155.003 4/12/1993 15.683 CTD
11440619 -49.250 154.980 4/12/1993 17.433 XBT
7545274 -49.762 155.010 4/12/1993 22.450 CTD
7545287 -50.223 155.009 4/13/1993 15.883 CTD
11440620 -50.230 154.980 4/13/1993 17.633 XBT
7545294 -50.742 154.991 4/13/1993 22.950 CTD
7545303 -51.255 155.013 4/14/1993 6.200 CTD
7545334 -51.725 155.056 4/15/1993 22.000 CTD
7545336 -52.219 154.978 4/16/1993 3.850 CTD
7545337 -52.731 155.025 4/16/1993 11.883 CTD
11440621 -53.270 155.030 4/18/1993 6.967 XBT
7545346 -53.258 155.044 4/18/1993 7.317 CTD
11440622 -53.730 154.970 4/18/1993 15.467 XBT
7545350 -53.730 154.957 4/18/1993 15.767 CTD
7545351 -54.267 155.063 4/19/1993 0.833 CTD
7545352 -54.768 155.034 4/19/1993 6.167 CTD
7545353 -55.249 154.969 4/19/1993 13.200 CTD
7545354 -55.258 154.932 4/21/1993 5.150 CTD
7545355 -55.741 155.044 4/21/1993 14.967 CTD
7545356 -56.430 155.070 4/22/1993 0.750 CTD
7545357 -57.012 155.012 4/22/1993 5.483 CTD
7545358 -57.585 154.996 4/22/1993 11.567 CTD
7545359 -58.237 155.043 4/22/1993 19.317 CTD
7545360 -58.868 154.478 4/23/1993 2.450 CTD
7545361 -59.491 153.934 4/23/1993 9.583 CTD
11440623 -53.730 154.970 4/23/1993 11.067 XBT
11440624 -59.500 153.930 4/23/1993 11.217 XBT
7545363 -60.081 153.451 4/23/1993 17.883 CTD
11440625 -60.070 153.450 4/23/1993 18.783 XBT
7545364 -60.721 152.952 4/24/1993 2.200 CTD
11440626 -60.720 152.950 4/24/1993 3.350 XBT
7545369 -61.601 152.173 4/24/1993 14.333 CTD
7545372 -62.215 151.688 4/24/1993 20.933 CTD
7545375 -62.868 151.158 4/25/1993 6.150 CTD
7545379 -63.427 150.655 4/25/1993 22.183 CTD
7545381 -64.057 150.092 4/26/1993 6.117 CTD
7545385 -64.536 149.632 4/26/1993 18.817 CTD
7545387 -64.993 149.275 4/27/1993 2.967 CTD
7545390 -65.425 149.055 4/27/1993 9.550 CTD
7545393 -65.577 148.676 4/27/1993 17.117 CTD
7545395 -65.633 147.814 4/27/1993 22.350 CTD
7545402 -65.795 146.515 4/28/1993 22.650 CTD
7545403 -65.771 146.488 4/29/1993 10.567 CTD
7545408 -65.773 146.451 4/29/1993 20.667 CTD
7545413 -65.890 146.467 4/30/1993 6.950 CTD
7545426 -65.448 143.948 5/2/1993 23.317 CTD